Temp
-7 -7 -6 -6 -6 -7 -7 -6 -5 -5 -6 -6 -6 -6 -6 -6 -6 -6 -6 -6 -6 -6 -7 -7 -7 -7 -7 -7 -7 -8 -8 -8 -8
-7 -7 -7 -6 -6 -6 -7 -6 -6 -5 -5 -6 -7 -7 -7 -7 -6 -6 -7 -7 -7 -7 -7 -7 -7 -7 -7 -7 -8 -8 -8 -8 -8
-6 -6 -7 -6 -6 -6 -6 -7 -6 -5 -5 -6 -6 -6 -6 -6 -7 -6 -7 -7 -7 -8 -8 -8 -7 -7 -7 -7 -8 -8 -8 -8 -9
-6 -6 -6 -6 -7 -7 -7 -8 -7 -6 -6 -6 -6 -7 -7 -7 -6 -6 -7 -7 -7 -8 -8 -8 -7 -7 -7 -8 -8 -8 -9 -9 -9
-6 -6 -6 -6 -7 -7 -7 -7 -7 -7 -7 -6 -7 -7 -7 -7 -7 -7 -7 -7 -7 -8 -8 -8 -8 -8 -8 -8 -8 -8 -9 -9 -9
-6 -6 -6 -6 -6 -7 -7 -6 -7 -7 -7 -7 -7 -7 -7 -7 -7 -7 -7 -7 -7 -8 -8 -8 -8 -8 -8 -8 -9 -8 -8 -9 -9
-5 -6 -6 -6 -6 -6 -6 -6 -6 -7 -7 -7 -8 -8 -7 -7 -8 -7 -7 -6 -6 -7 -8 -8 -8 -8 -8 -8 -9 -9 -9 -9 -9
-4 -4 -5 -6 -6 -6 -6 -6 -6 -6 -7 -7 -8 -8 -8 -7 -8 -7 -7 -7 -6 -6 -6 -7 -8 -8 -8 -8 -9 -9 -9 -9 -9
-3 -3 -4 -5 -7 -7 -6 -6 -6 -6 -6 -6 -8 -8 -8 -8 -8 -8 -8 -7 -7 -7 -7 -7 -7 -8 -8 -8 -9 -9 -9 -9 -9
-4 -4 -3 -4 -5 -7 -6 -6 -6 -6 -6 -7 -8 -8 -8 -8 -8 -8 -8 -8 -8 -8 -8 -8 -8 -8 -8 -9 -9 -10 -10 -10 -10
-5 -4 -4 -4 -4 -5 -6 -6 -6 -6 -6 -6 -7 -7 -8 -7 -7 -8 -8 -8 -8 -8 -8 -8 -8 -8 -8 -9 -9 -10 -10 -10 -10
-5 -5 -4 -5 -4 -6 -6 -6 -6 -6 -6 -6 -6 -6 -7 -8 -8 -8 -8 -8 -8 -8 -8 -9 -9 -9 -9 -9 -9 -10 -10 -10 -10
-5 -5 -5 -5 -5 -5 -6 -6 -6 -6 -6 -7 -7 -7 -8 -8 -8 -8 -8 -8 -8 -8 -8 -9 -9 -9 -9 -9 -9 -9 -10 -10 -10
-6 -5 -5 -5 -5 -5 -6 -7 -7 -7 -7 -7 -8 -7 -8 -8 -8 -8 -8 -8 -9 -9 -8 -9 -9 -9 -9 -9 -10 -10 -10 -10 -10
-6 -6 -6 -6 -6 -7 -7 -7 -7 -8 -8 -8 -8 -8 -8 -8 -8 -8 -8 -8 -9 -9 -10 -9 -9 -9 -9 -9 -9 -9 -9 -10 -10
-8 -8 -7 -6 -6 -6 -7 -8 -8 -8 -9 -9 -9 -8 -8 -8 -8 -9 -8 -9 -9 -9 -9 -10 -10 -9 -9 -9 -10 -9 -10 -10 -10
-9 -9 -7 -7 -7 -7 -6 -8 -8 -8 -8 -9 -9 -8 -9 -9 -9 -9 -9 -8 -9 -9 -9 -9 -9 -9 -9 -10 -10 -9 -9 -8 -10
-9 -9 -9 -7 -7 -7 -7 -7 -7 -8 -8 -8 -8 -8 -9 -8 -8 -9 -9 -9 -9 -9 -9 -9 -9 -9 -9 -10 -10 -9 -9 -8 -8
-9 -9 -9 -8 -7 -7 -7 -8 -8 -8 -8 -8 -9 -9 -9 -9 -8 -9 -9 -9 -9 -9 -9 -9 -9 -10 -10 -9 -9 -10 -8 -8 -7
-9 -8 -8 -9 -8 -8 -8 -9 -9 -9 -9 -9 -9 -9 -9 -8 -8 -8 -9 -9 -9 -9 -9 -9 -10 -10 -10 -9 -9 -9 -7 -9 -8
Height
5874 5875 5879 5884 5887 5890 5892 5894 5896 5895 5896 5898 5899 5900 5902 5904 5906 5907 5908 5910 5910 5911 5911 5912 5912 5912 5913 5914 5914 5914 5913 5912 5910
5871 5873 5876 5880 5883 5885 5888 5890 5893 5892 5893 5895 5896 5896 5897 5899 5900 5903 5904 5905 5907 5907 5907 5908 5909 5910 5911 5912 5912 5911 5911 5910 5909
5868 5872 5874 5876 5878 5880 5884 5888 5891 5890 5891 5892 5892 5892 5893 5894 5895 5896 5898 5899 5902 5904 5904 5904 5905 5908 5908 5909 5909 5909 5908 5907 5907
5864 5868 5870 5873 5874 5877 5879 5882 5886 5887 5888 5889 5889 5889 5889 5891 5891 5892 5892 5894 5896 5898 5899 5900 5901 5904 5905 5906 5907 5906 5906 5905 5904
5859 5864 5868 5868 5870 5872 5874 5876 5880 5883 5884 5886 5886 5886 5886 5887 5887 5887 5888 5888 5890 5891 5893 5895 5897 5900 5902 5903 5904 5904 5903 5903 5902
5852 5856 5862 5865 5866 5868 5869 5871 5873 5877 5878 5881 5882 5882 5883 5883 5884 5884 5884 5883 5883 5884 5887 5890 5893 5896 5898 5900 5901 5901 5901 5900 5899
5842 5847 5852 5857 5860 5862 5865 5866 5869 5871 5874 5875 5876 5878 5879 5880 5880 5880 5880 5879 5879 5879 5882 5885 5889 5892 5893 5895 5897 5897 5897 5896 5896
5835 5839 5843 5849 5853 5856 5859 5861 5863 5866 5868 5869 5871 5872 5874 5877 5877 5876 5877 5877 5876 5877 5880 5882 5885 5886 5888 5890 5892 5893 5894 5894 5893
5826 5831 5836 5839 5843 5848 5851 5856 5858 5861 5863 5864 5866 5867 5870 5871 5872 5872 5874 5874 5874 5875 5877 5878 5879 5882 5884 5885 5887 5888 5888 5888 5888
5819 5822 5826 5829 5833 5838 5843 5849 5854 5854 5857 5859 5858 5862 5863 5865 5866 5868 5869 5870 5870 5872 5873 5874 5876 5877 5877 5880 5881 5881 5880 5880 5882
5809 5813 5817 5822 5826 5830 5835 5840 5844 5848 5849 5851 5852 5854 5855 5858 5860 5862 5864 5865 5866 5867 5867 5869 5870 5872 5873 5873 5874 5874 5874 5873 5875
5801 5805 5809 5812 5817 5821 5825 5830 5835 5838 5838 5840 5844 5847 5849 5852 5855 5856 5857 5859 5861 5862 5862 5862 5864 5865 5866 5867 5868 5868 5867 5866 5868
5794 5797 5800 5803 5808 5813 5817 5821 5824 5826 5829 5833 5836 5839 5843 5846 5847 5848 5849 5851 5852 5854 5854 5856 5856 5856 5858 5859 5859 5860 5858 5857 5859
5785 5789 5791 5794 5797 5802 5806 5810 5813 5816 5819 5823 5831 5833 5835 5836 5838 5839 5835 5841 5841 5843 5844 5845 5848 5849 5849 5849 5849 5849 5847 5846 5847
5776 5781 5785 5787 5789 5791 5795 5799 5803 5806 5810 5815 5816 5819 5822 5826 5829 5831 5829 5829 5829 5829 5830 5834 5836 5837 5838 5839 5837 5836 5836 5836 5838
5765 5771 5775 5777 5779 5783 5785 5788 5791 5794 5796 5799 5803 5807 5811 5814 5815 5820 5819 5814 5817 5815 5816 5813 5819 5821 5825 5826 5824 5825 5823 5821 5819
5753 5759 5765 5767 5770 5773 5775 5778 5781 5784 5787 5790 5793 5795 5797 5798 5801 5803 5804 5807 5806 5806 5803 5805 5800 5806 5810 5813 5813 5808 5803 5799 5796
5743 5748 5752 5758 5762 5764 5765 5767 5770 5773 5776 5778 5781 5783 5786 5788 5790 5791 5791 5792 5789 5788 5790 5789 5787 5789 5794 5794 5795 5793 5794 5779 5758
5733 5739 5743 5747 5750 5752 5754 5756 5758 5760 5762 5765 5767 5769 5772 5774 5775 5775 5776 5776 5776 5777 5777 5780 5778 5777 5781 5779 5773 5770 5769 5758 5750
5723 5728 5732 5734 5737 5740 5742 5744 5746 5748 5751 5752 5753 5756 5758 5758 5757 5757 5758 5759 5759 5759 5759 5761 5763 5762 5762 5761 5757 5757 5751 5764 5757
Wind_Speed
25 22 18 16 11 8 9 7 6 5 8 13 15 18 19 21 19 16 16 13 13 13 13 13 16 16 14 7 6 8 7 9 9
26 24 19 11 12 10 5 4 5 3 4 8 10 13 18 19 19 19 18 18 16 16 15 16 17 16 13 9 6 8 8 9 7
26 23 24 22 14 13 9 8 12 8 5 6 8 7 9 16 19 21 22 22 19 19 19 19 17 17 15 11 8 9 11 11 6
26 31 29 24 19 14 13 15 14 11 11 11 8 8 8 9 13 19 23 24 24 25 24 21 18 18 17 13 10 10 12 11 10
30 27 25 27 25 22 20 19 19 13 14 13 11 12 10 10 12 15 17 19 23 27 24 23 21 20 18 14 12 11 11 12 14
34 34 29 29 29 28 30 23 22 21 19 15 13 14 12 12 12 15 17 17 20 26 26 25 24 21 19 15 13 11 13 14 14
42 39 34 34 32 32 31 30 26 23 21 21 18 17 14 12 10 12 13 17 18 23 27 27 27 22 22 17 16 15 14 16 15
38 40 41 39 38 35 36 34 33 29 27 26 23 19 19 13 10 10 11 13 13 15 22 26 27 25 25 21 20 20 20 20 19
32 31 37 40 38 37 37 34 33 28 27 31 27 22 18 19 15 13 11 13 15 16 17 23 27 25 25 25 24 25 24 24 22
36 33 31 34 41 42 41 36 38 33 30 32 39 27 24 21 20 21 17 17 19 18 20 23 24 26 27 27 28 29 27 28 26
43 39 36 36 37 41 43 39 39 37 34 26 15 29 31 27 24 25 23 24 23 24 24 24 25 25 27 30 30 31 31 33 31
43 45 41 40 37 41 42 38 37 36 36 24 19 25 31 33 31 30 27 25 26 28 29 27 27 30 29 31 34 35 37 39 35
44 41 45 45 40 37 44 44 43 43 38 32 30 26 36 37 37 35 35 33 34 33 32 32 32 33 32 33 35 38 41 41 38
40 39 43 45 42 38 43 49 49 44 42 44 29 33 39 38 41 42 40 41 34 34 34 37 38 40 40 39 42 43 46 47 44
38 40 40 41 41 44 45 45 45 44 43 35 34 36 40 41 45 40 44 49 39 42 37 40 41 42 48 46 49 50 52 53 51
36 35 39 39 41 43 47 47 48 46 43 40 43 43 39 44 42 41 45 43 48 54 55 39 46 49 46 51 55 58 57 56 56
37 38 36 38 41 43 44 54 50 51 52 51 50 53 48 51 46 47 47 49 60 60 53 48 51 47 37 47 53 60 65 68 70
45 43 43 37 39 40 40 38 42 52 57 57 54 54 53 56 58 57 54 56 66 47 59 57 53 56 50 57 55 64 66 70 69
52 51 48 42 41 45 46 46 46 44 46 47 47 47 49 55 62 60 59 65 66 62 66 67 62 63 64 69 69 64 57 62 34
44 44 48 50 46 45 48 50 49 48 49 54 52 55 53 53 59 64 62 65 69 71 70 71 67 69 70 71 76 70 65 64 35
Wind_Direction
197 194 189 187 185 221 264 247 271 244 242 243 238 237 236 233 234 234 234 234 239 245 253 272 285 286 283 263 285 295 299 307 310
198 197 192 192 193 182 215 153 224 205 254 230 226 233 238 242 241 240 237 236 241 244 247 260 270 271 258 260 258 278 287 289 301
214 202 186 169 163 166 157 213 233 198 231 229 226 229 248 243 240 241 240 242 237 239 245 256 255 259 235 239 239 257 278 286 289
219 193 186 180 185 192 195 210 232 225 239 256 236 239 247 263 255 247 242 242 240 236 241 249 245 234 238 223 234 259 272 276 294
209 212 204 195 194 209 217 212 232 256 259 252 241 253 259 264 263 263 259 247 238 236 229 237 231 222 228 215 234 253 264 275 287
223 228 227 224 210 213 229 215 213 236 256 251 247 255 262 266 271 264 266 259 243 233 221 227 222 225 221 217 232 252 264 274 279
227 227 228 232 233 219 226 227 223 219 233 241 246 255 259 261 261 262 274 271 265 238 219 220 219 227 221 222 235 246 259 270 279
229 230 234 234 236 238 233 242 236 235 231 239 243 248 252 242 252 264 274 286 276 259 234 225 221 228 225 228 239 247 259 263 276
236 231 234 239 234 232 238 242 248 257 258 238 236 248 249 256 251 261 273 283 277 255 247 242 238 235 233 237 245 253 262 274 279
242 244 242 239 238 236 241 246 249 255 250 255 250 236 240 244 254 254 259 269 277 277 265 251 247 243 241 244 250 254 262 272 281
242 243 242 244 247 246 245 250 250 255 259 261 270 246 236 244 242 247 251 263 272 276 279 269 254 252 253 251 252 253 262 268 273
240 245 246 242 242 247 251 253 258 263 252 258 261 259 238 246 249 249 249 260 269 268 266 268 269 263 259 258 256 257 263 266 269
237 243 247 248 248 245 246 253 256 259 264 262 274 265 242 245 254 255 255 263 267 259 261 257 257 263 262 255 255 256 259 266 275
234 238 248 253 253 252 246 245 250 255 261 264 265 250 249 250 249 255 248 261 259 252 256 254 255 258 260 259 257 260 260 261 266
238 238 242 249 252 249 250 250 252 253 254 251 244 240 244 244 248 262 269 267 261 260 252 258 256 257 254 257 259 262 262 265 265
241 233 237 240 247 244 247 245 243 243 245 247 244 247 244 243 242 253 250 265 253 251 258 245 253 254 254 255 257 264 265 262 260
241 240 241 239 240 243 243 241 242 241 244 247 246 245 241 243 243 256 259 258 250 272 266 278 289 272 267 257 265 265 270 266 260
240 245 252 246 241 243 243 248 250 248 247 248 250 254 259 264 262 262 257 250 259 250 266 271 273 276 275 271 264 258 266 261 255
238 244 251 254 244 246 245 249 254 256 255 258 258 258 259 260 260 260 261 255 261 260 261 261 260 261 265 267 259 250 255 252 271
240 246 247 249 250 251 255 258 263 268 269 270 268 267 266 267 269 265 266 263 259 259 257 259 255 257 261 259 255 260 260 272 283